STRIX-1 (53815 NORAD) Tracking and Keplerian Element Data

This shows tracking and keplerian element data for the satellite.

Feedback or suggestion? Click here.




ElementValue
Catalog53815
NameSTRIX-1
Epoch Orbit993
Epoch Day325.12708133
Epoch Year2022
RAAN14.9888
Inclination97.6455
Eccentricity0.0013867
Argument of Perigee94.3017
Mean Anonmoly265.9799
Mean Motion15.00309416
Decay Rate2.277E-05
L11 53815U 22113A 22325.12708133 .00002277 00000+0 18601-3 0 9996
L22 53815 97.6455 14.9888 0013867 94.3017 265.9799 15.00309416 9934



Live tracking and technical data element details for STRIX-1 (NORAD 53815). STRIX-1 can be tracked NOW for your location showing map with azimuth and elevation plus other details from your city location.







IsCatalogInMostPopularTable: catalog: 53815, numindb: -1

Insert: records affected: 1


GetName: 53815 STRIX-1

Hit Count: inserted at: Thu, 08 Dec 2022 09:24:59 GMT